owner,sensor,date,latitude,longitude,vertical_datum,direction_of_sea_water_velocity,sea_water_speed,upward_sea_water_velocity,qcFlag 
TABS,ioos:station:wmo:42049:1,2006-04-01T00:00:00Z,28.3507,-96.0058,2.0,232.3237786,55.02344409,-99999.0,'11111222,11111222,99999999' 
TABS,ioos:station:wmo:42049:1,2006-04-01T00:30:00Z,28.3507,-96.0058,2.0,230.4292808,55.52366072,-99999.0,'11111222,11111222,99999999' 
TABS,ioos:station:wmo:42049:1,2006-04-01T01:00:00Z,28.3507,-96.0058,2.0,232.465541,56.75981413,-99999.0,'11111222,11111222,99999999' 
TABS,ioos:station:wmo:42049:1,2006-04-01T01:30:00Z,28.3507,-96.0058,2.0,232.6056212,54.43827789,-99999.0,'11111222,11111222,99999999' 
TABS,ioos:station:wmo:42049:1,2006-04-01T02:00:00Z,28.3507,-96.0058,2.0,229.3484551,53.52652613,-99999.0,'11111222,11111222,99999999' 
TABS,ioos:station:wmo:42049:1,2006-04-01T02:30:00Z,28.3507,-96.0058,2.0,226.8528121,52.04199266,-99999.0,'11111222,11111222,99999999' 
TABS,ioos:station:wmo:42049:1,2006-04-01T03:00:00Z,28.3507,-96.0058,2.0,226.1794808,48.07931156,-99999.0,'11111222,11111222,99999999' 
TABS,ioos:station:wmo:42049:1,2006-04-01T03:30:00Z,28.3507,-96.0058,2.0,226.9542249,45.1962764,-99999.0,'11111222,11111222,99999999' 
TABS,ioos:station:wmo:42049:1,2006-04-01T04:00:00Z,28.3507,-96.0058,2.0,225.4264251,43.67212612,-99999.0,'11111222,11111222,99999999' 
TABS,ioos:station:wmo:42049:1,2006-04-01T04:30:00Z,28.3507,-96.0058,2.0,224.7597944,42.22171598,-99999.0,'11111222,11111222,99999999' 
TABS,ioos:station:wmo:42049:1,2006-04-01T05:00:00Z,28.3507,-96.0058,2.0,224.7946185,39.51338001,-99999.0,'11111222,11111222,99999999' 
TABS,ioos:station:wmo:42049:1,2006-04-01T05:30:00Z,28.3507,-96.0058,2.0,220.7794103,39.01079338,-99999.0,'11111222,11111222,99999999' 
TABS,ioos:station:wmo:42049:1,2006-04-01T06:00:00Z,28.3507,-96.0058,2.0,212.3584213,34.37850491,-99999.0,'11111222,11111222,99999999' 
TABS,ioos:station:wmo:42049:1,2006-04-01T06:30:00Z,28.3507,-96.0058,2.0,194.1544039,35.20897187,-99999.0,'11111222,11111222,99999999' 
TABS,ioos:station:wmo:42049:1,2006-04-01T07:00:00Z,28.3507,-96.0058,2.0,189.2211319,34.00951926,-99999.0,'11111222,11111222,99999999' 
TABS,ioos:station:wmo:42049:1,2006-04-01T07:30:00Z,28.3507,-96.0058,2.0,192.5938037,33.34223298,-99999.0,'11111222,11111222,99999999' 
TABS,ioos:station:wmo:42049:1,2006-04-01T08:00:00Z,28.3507,-96.0058,2.0,186.4855545,28.68357718,-99999.0,'11111222,11111222,99999999' 
TABS,ioos:station:wmo:42049:1,2006-04-01T08:30:00Z,28.3507,-96.0058,2.0,192.131926,31.02288349,-99999.0,'11111222,11111222,99999999' 
TABS,ioos:station:wmo:42049:1,2006-04-01T09:00:00Z,28.3507,-96.0058,2.0,198.6386872,27.5341261,-99999.0,'11111222,11111222,99999999' 
TABS,ioos:station:wmo:42049:1,2006-04-01T09:30:00Z,28.3507,-96.0058,2.0,208.4426517,24.8381662,-99999.0,'11111222,11111222,99999999' 
TABS,ioos:station:wmo:42049:1,2006-04-01T10:00:00Z,28.3507,-96.0058,2.0,214.0922762,27.24199883,-99999.0,'11111222,11111222,99999999' 
TABS,ioos:station:wmo:42049:1,2006-04-01T10:30:00Z,28.3507,-96.0058,2.0,224.3623469,24.15626213,-99999.0,'11111222,11111222,99999999' 
TABS,ioos:station:wmo:42049:1,2006-04-01T11:00:00Z,28.3507,-96.0058,2.0,222.3036359,24.2027705,-99999.0,'11111222,11111222,99999999' 
TABS,ioos:station:wmo:42049:1,2006-04-01T11:30:00Z,28.3507,-96.0058,2.0,225.1573494,25.69635772,-99999.0,'11111222,11111222,99999999' 
TABS,ioos:station:wmo:42049:1,2006-04-01T12:00:00Z,28.3507,-96.0058,2.0,231.7053385,28.4007764,-99999.0,'11111222,11111222,99999999' 
TABS,ioos:station:wmo:42049:1,2006-04-01T12:30:00Z,28.3507,-96.0058,2.0,229.9514739,33.25915814,-99999.0,'11111222,11111222,99999999' 
TABS,ioos:station:wmo:42049:1,2006-04-01T13:00:00Z,28.3507,-96.0058,2.0,232.1010983,34.08949398,-99999.0,'11111222,11111222,99999999' 
TABS,ioos:station:wmo:42049:1,2006-04-01T13:30:00Z,28.3507,-96.0058,2.0,230.7626964,37.67414631,-99999.0,'11111222,11111222,99999999' 
TABS,ioos:station:wmo:42049:1,2006-04-01T14:00:00Z,28.3507,-96.0058,2.0,234.7026264,38.47249537,-99999.0,'11111222,11111222,99999999' 
TABS,ioos:station:wmo:42049:1,2006-04-01T14:30:00Z,28.3507,-96.0058,2.0,234.3586785,37.39460121,-99999.0,'11111222,11111222,99999999' 
TABS,ioos:station:wmo:42049:1,2006-04-01T15:00:00Z,28.3507,-96.0058,2.0,232.8907307,37.39232542,-99999.0,'11111222,11111222,99999999' 
TABS,ioos:station:wmo:42049:1,2006-04-01T15:30:00Z,28.3507,-96.0058,2.0,239.5334398,43.64632058,-99999.0,'11111222,11111222,99999999' 
TABS,ioos:station:wmo:42049:1,2006-04-01T16:00:00Z,28.3507,-96.0058,2.0,244.9481804,47.06776498,-99999.0,'11111222,11111222,99999999' 
TABS,ioos:station:wmo:42049:1,2006-04-01T16:30:00Z,28.3507,-96.0058,2.0,241.8362774,48.58182582,-99999.0,'11111222,11111222,99999999' 
TABS,ioos:station:wmo:42049:1,2006-04-01T17:00:00Z,28.3507,-96.0058,2.0,240.5716532,47.54448128,-99999.0,'11111222,11111222,99999999' 
TABS,ioos:station:wmo:42049:1,2006-04-01T17:30:00Z,28.3507,-96.0058,2.0,238.629868,48.15972695,-99999.0,'11111222,11111222,99999999' 
TABS,ioos:station:wmo:42049:1,2006-04-01T18:00:00Z,28.3507,-96.0058,2.0,238.3084538,44.84706456,-99999.0,'11111222,11111222,99999999' 
TABS,ioos:station:wmo:42049:1,2006-04-01T18:30:00Z,28.3507,-96.0058,2.0,242.666885,43.05711788,-99999.0,'11111222,11111222,99999999' 
TABS,ioos:station:wmo:42049:1,2006-04-01T19:00:00Z,28.3507,-96.0058,2.0,239.5188569,41.91231323,-99999.0,'11111222,11111222,99999999' 
TABS,ioos:station:wmo:42049:1,2006-04-01T19:30:00Z,28.3507,-96.0058,2.0,240.452745,40.92178393,-99999.0,'11111222,11111222,99999999' 
TABS,ioos:station:wmo:42049:1,2006-04-01T20:00:00Z,28.3507,-96.0058,2.0,241.5301888,39.56447902,-99999.0,'11111222,11111222,99999999' 
TABS,ioos:station:wmo:42049:1,2006-04-01T20:30:00Z,28.3507,-96.0058,2.0,243.2216982,37.31128784,-99999.0,'11111222,11111222,99999999' 
TABS,ioos:station:wmo:42049:1,2006-04-01T21:00:00Z,28.3507,-96.0058,2.0,245.2256196,35.62902468,-99999.0,'11111222,11111222,99999999' 
TABS,ioos:station:wmo:42049:1,2006-04-01T21:30:00Z,28.3507,-96.0058,2.0,261.0618314,24.78089789,-99999.0,'11111222,11111222,99999999' 
TABS,ioos:station:wmo:42049:1,2006-04-01T22:00:00Z,28.3507,-96.0058,2.0,273.155018,18.89863752,-99999.0,'11111222,11111222,99999999' 
TABS,ioos:station:wmo:42049:1,2006-04-01T22:30:00Z,28.3507,-96.0058,2.0,290.5114315,19.37850871,-99999.0,'11111222,11111222,99999999' 
TABS,ioos:station:wmo:42049:1,2006-04-01T23:00:00Z,28.3507,-96.0058,2.0,288.9277659,16.92513515,-99999.0,'11111222,11111222,99999999' 
TABS,ioos:station:wmo:42049:1,2006-04-01T23:30:00Z,28.3507,-96.0058,2.0,288.2710217,15.43830302,-99999.0,'11111222,11111222,99999999' 
TABS,ioos:station:wmo:42049:1,2006-04-02T00:00:00Z,28.3507,-96.0058,2.0,293.313302,17.10663614,-99999.0,'11111222,11111222,99999999' 
TABS,ioos:station:wmo:42049:1,2006-04-02T00:30:00Z,28.3507,-96.0058,2.0,296.1131237,17.56262509,-99999.0,'11111222,11111222,99999999' 
TABS,ioos:station:wmo:42049:1,2006-04-02T01:00:00Z,28.3507,-96.0058,2.0,293.7542839,14.22509402,-99999.0,'11111222,11111222,99999999' 
TABS,ioos:station:wmo:42049:1,2006-04-02T01:30:00Z,28.3507,-96.0058,2.0,291.0890193,14.47978591,-99999.0,'11111222,11111222,99999999' 
TABS,ioos:station:wmo:42049:1,2006-04-02T02:00:00Z,28.3507,-96.0058,2.0,290.5470037,14.24624863,-99999.0,'11111222,11111222,99999999' 
TABS,ioos:station:wmo:42049:1,2006-04-02T02:30:00Z,28.3507,-96.0058,2.0,291.5268504,13.5447739,-99999.0,'11111222,11111222,99999999' 
TABS,ioos:station:wmo:42049:1,2006-04-02T03:00:00Z,28.3507,-96.0058,2.0,281.7379565,14.45220052,-99999.0,'11111222,11111222,99999999' 
TABS,ioos:station:wmo:42049:1,2006-04-02T03:30:00Z,28.3507,-96.0058,2.0,281.7515717,15.02490266,-99999.0,'11111222,11111222,99999999' 
TABS,ioos:station:wmo:42049:1,2006-04-02T04:00:00Z,28.3507,-96.0058,2.0,286.3758676,16.10323259,-99999.0,'11111222,11111222,99999999' 
TABS,ioos:station:wmo:42049:1,2006-04-02T04:30:00Z,28.3507,-96.0058,2.0,288.3933672,17.27236521,-99999.0,'11111222,11111222,99999999' 
TABS,ioos:station:wmo:42049:1,2006-04-02T05:00:00Z,28.3507,-96.0058,2.0,296.4275146,18.58177871,-99999.0,'11111222,11111222,99999999' 
TABS,ioos:station:wmo:42049:1,2006-04-02T05:30:00Z,28.3507,-96.0058,2.0,298.9905997,19.0236169,-99999.0,'11111222,11111222,99999999' 
TABS,ioos:station:wmo:42049:1,2006-04-02T06:00:00Z,28.3507,-96.0058,2.0,288.9880006,15.73622572,-99999.0,'11111222,11111222,99999999' 
TABS,ioos:station:wmo:42049:1,2006-04-02T06:30:00Z,28.3507,-96.0058,2.0,287.0293025,15.98063829,-99999.0,'11111222,11111222,99999999' 
TABS,ioos:station:wmo:42049:1,2006-04-02T07:00:00Z,28.3507,-96.0058,2.0,296.3972087,16.75716563,-99999.0,'11111222,11111222,99999999' 
TABS,ioos:station:wmo:42049:1,2006-04-02T07:30:00Z,28.3507,-96.0058,2.0,306.738291,17.37004606,-99999.0,'11111222,11111222,99999999' 
TABS,ioos:station:wmo:42049:1,2006-04-02T08:00:00Z,28.3507,-96.0058,2.0,311.9846014,14.5157914,-99999.0,'11111222,11111222,99999999' 
TABS,ioos:station:wmo:42049:1,2006-04-02T08:30:00Z,28.3507,-96.0058,2.0,321.1926185,15.73299717,-99999.0,'11111222,11111222,99999999' 
TABS,ioos:station:wmo:42049:1,2006-04-02T09:00:00Z,28.3507,-96.0058,2.0,327.3672867,16.83801651,-99999.0,'11111222,11111222,99999999' 
TABS,ioos:station:wmo:42049:1,2006-04-02T09:30:00Z,28.3507,-96.0058,2.0,340.0258148,16.94960177,-99999.0,'11111222,11111222,99999999' 
TABS,ioos:station:wmo:42049:1,2006-04-02T10:00:00Z,28.3507,-96.0058,2.0,347.8906235,16.1595823,-99999.0,'11111222,11111222,99999999' 
TABS,ioos:station:wmo:42049:1,2006-04-02T10:30:00Z,28.3507,-96.0058,2.0,358.1851108,17.04855419,-99999.0,'11111222,11111222,99999999' 
TABS,ioos:station:wmo:42049:1,2006-04-02T11:00:00Z,28.3507,-96.0058,2.0,13.52731393,14.1937451,-99999.0,'11111222,11111222,99999999' 
TABS,ioos:station:wmo:42049:1,2006-04-02T11:30:00Z,28.3507,-96.0058,2.0,23.08529015,13.26197572,-99999.0,'11111222,11111222,99999999' 
TABS,ioos:station:wmo:42049:1,2006-04-02T12:00:00Z,28.3507,-96.0058,2.0,32.3390809,13.29153866,-99999.0,'11111222,11111222,99999999' 
TABS,ioos:station:wmo:42049:1,2006-04-02T12:30:00Z,28.3507,-96.0058,2.0,49.1223934,12.59079028,-99999.0,'11111222,11111222,99999999' 
TABS,ioos:station:wmo:42049:1,2006-04-02T13:00:00Z,28.3507,-96.0058,2.0,78.28827466,9.507944047,-99999.0,'11133222,11111222,99999999' 
TABS,ioos:station:wmo:42049:1,2006-04-02T13:30:00Z,28.3507,-96.0058,2.0,121.5156139,11.03816108,-99999.0,'11111222,11111222,99999999' 
TABS,ioos:station:wmo:42049:1,2006-04-02T14:00:00Z,28.3507,-96.0058,2.0,137.943577,12.94299038,-99999.0,'11111222,11111222,99999999' 
TABS,ioos:station:wmo:42049:1,2006-04-02T14:30:00Z,28.3507,-96.0058,2.0,127.1600831,10.26413172,-99999.0,'11111222,11111222,99999999' 
TABS,ioos:station:wmo:42049:1,2006-04-02T15:00:00Z,28.3507,-96.0058,2.0,161.0378353,14.09486786,-99999.0,'11111222,11111222,99999999' 
TABS,ioos:station:wmo:42049:1,2006-04-02T15:30:00Z,28.3507,-96.0058,2.0,165.8428589,14.96448128,-99999.0,'11111222,11111222,99999999' 
TABS,ioos:station:wmo:42049:1,2006-04-02T16:00:00Z,28.3507,-96.0058,2.0,155.8153103,15.71970738,-99999.0,'11111222,11111222,99999999' 
TABS,ioos:station:wmo:42049:1,2006-04-02T16:30:00Z,28.3507,-96.0058,2.0,180.4480394,14.06043029,-99999.0,'11111222,11111222,99999999' 
TABS,ioos:station:wmo:42049:1,2006-04-02T17:00:00Z,28.3507,-96.0058,2.0,210.9185447,17.49629104,-99999.0,'11111222,11111222,99999999' 
TABS,ioos:station:wmo:42049:1,2006-04-02T17:30:00Z,28.3507,-96.0058,2.0,227.7280813,18.41979913,-99999.0,'11111222,11111222,99999999' 
TABS,ioos:station:wmo:42049:1,2006-04-02T18:00:00Z,28.3507,-96.0058,2.0,228.9405835,19.54822754,-99999.0,'11111222,11111222,99999999' 
TABS,ioos:station:wmo:42049:1,2006-04-02T18:30:00Z,28.3507,-96.0058,2.0,236.0026066,18.63542057,-99999.0,'11111222,11111222,99999999' 
TABS,ioos:station:wmo:42049:1,2006-04-02T19:00:00Z,28.3507,-96.0058,2.0,235.1607995,19.92051455,-99999.0,'11111222,11111222,99999999' 
TABS,ioos:station:wmo:42049:1,2006-04-02T19:30:00Z,28.3507,-96.0058,2.0,230.2722457,18.77534554,-99999.0,'11111222,11111222,99999999' 
TABS,ioos:station:wmo:42049:1,2006-04-02T20:00:00Z,28.3507,-96.0058,2.0,227.162738,19.29655151,-99999.0,'11111222,11111222,99999999' 
TABS,ioos:station:wmo:42049:1,2006-04-02T20:30:00Z,28.3507,-96.0058,2.0,221.5206768,18.17786016,-99999.0,'11111222,11111222,99999999' 
TABS,ioos:station:wmo:42049:1,2006-04-02T21:00:00Z,28.3507,-96.0058,2.0,218.7752733,20.8695424,-99999.0,'11111222,11111222,99999999' 
TABS,ioos:station:wmo:42049:1,2006-04-02T21:30:00Z,28.3507,-96.0058,2.0,228.2857786,20.72401988,-99999.0,'11111222,11111222,99999999' 
TABS,ioos:station:wmo:42049:1,2006-04-02T22:00:00Z,28.3507,-96.0058,2.0,234.6423005,20.68520727,-99999.0,'11111222,11111222,99999999' 
TABS,ioos:station:wmo:42049:1,2006-04-02T22:30:00Z,28.3507,-96.0058,2.0,243.0704775,21.81551971,-99999.0,'11111222,11111222,99999999' 
TABS,ioos:station:wmo:42049:1,2006-04-02T23:00:00Z,28.3507,-96.0058,2.0,251.1422323,21.87406912,-99999.0,'11111222,11111222,99999999' 
TABS,ioos:station:wmo:42049:1,2006-04-02T23:30:00Z,28.3507,-96.0058,2.0,250.8680033,21.84662903,-99999.0,'11111222,11111222,99999999' 
TABS,ioos:station:wmo:42049:1,2006-04-03T00:00:00Z,28.3507,-96.0058,2.0,251.5789687,25.34881851,-99999.0,'11111222,11111222,99999999' 
TABS,ioos:station:wmo:42049:1,2006-04-03T00:30:00Z,28.3507,-96.0058,2.0,256.3930632,23.93166313,-99999.0,'11111222,11111222,99999999' 
TABS,ioos:station:wmo:42049:1,2006-04-03T01:00:00Z,28.3507,-96.0058,2.0,250.1396305,25.04982435,-99999.0,'11111222,11111222,99999999' 
TABS,ioos:station:wmo:42049:1,2006-04-03T01:30:00Z,28.3507,-96.0058,2.0,250.5524881,26.85192731,-99999.0,'11111222,11111222,99999999' 
TABS,ioos:station:wmo:42049:1,2006-04-03T02:00:00Z,28.3507,-96.0058,2.0,247.7820368,27.60991126,-99999.0,'11111222,11111222,99999999' 
TABS,ioos:station:wmo:42049:1,2006-04-03T02:30:00Z,28.3507,-96.0058,2.0,259.2199223,29.03231475,-99999.0,'11111222,11111222,99999999' 
TABS,ioos:station:wmo:42049:1,2006-04-03T03:00:00Z,28.3507,-96.0058,2.0,256.2103961,27.56442998,-99999.0,'11111222,11111222,99999999' 
TABS,ioos:station:wmo:42049:1,2006-04-03T03:30:00Z,28.3507,-96.0058,2.0,259.8913917,28.14689503,-99999.0,'11111222,11111222,99999999' 
TABS,ioos:station:wmo:42049:1,2006-04-03T04:00:00Z,28.3507,-96.0058,2.0,259.6088168,29.21918034,-99999.0,'11111222,11111222,99999999' 
TABS,ioos:station:wmo:42049:1,2006-04-03T04:30:00Z,28.3507,-96.0058,2.0,262.802047,28.41389977,-99999.0,'11111222,11111222,99999999' 
TABS,ioos:station:wmo:42049:1,2006-04-03T05:00:00Z,28.3507,-96.0058,2.0,263.3354574,26.36815693,-99999.0,'11111222,11111222,99999999' 
TABS,ioos:station:wmo:42049:1,2006-04-03T05:30:00Z,28.3507,-96.0058,2.0,270.4206748,24.54066014,-99999.0,'11111222,11111222,99999999' 
TABS,ioos:station:wmo:42049:1,2006-04-03T06:00:00Z,28.3507,-96.0058,2.0,268.4879615,21.60751952,-99999.0,'11111222,11111222,99999999' 
TABS,ioos:station:wmo:42049:1,2006-04-03T06:30:00Z,28.3507,-96.0058,2.0,258.748138,19.21939125,-99999.0,'11111222,11111222,99999999' 
TABS,ioos:station:wmo:42049:1,2006-04-03T07:00:00Z,28.3507,-96.0058,2.0,271.9491223,18.82088468,-99999.0,'11111222,11111222,99999999' 
TABS,ioos:station:wmo:42049:1,2006-04-03T07:30:00Z,28.3507,-96.0058,2.0,275.6875997,17.05394383,-99999.0,'11111222,11111222,99999999' 
TABS,ioos:station:wmo:42049:1,2006-04-03T08:00:00Z,28.3507,-96.0058,2.0,263.9374471,14.1088979,-99999.0,'11111222,11111222,99999999' 
TABS,ioos:station:wmo:42049:1,2006-04-03T08:30:00Z,28.3507,-96.0058,2.0,272.5914464,11.28153358,-99999.0,'11111222,11111222,99999999' 
TABS,ioos:station:wmo:42049:1,2006-04-03T09:00:00Z,28.3507,-96.0058,2.0,281.7708593,10.73574404,-99999.0,'11111222,11111222,99999999' 
TABS,ioos:station:wmo:42049:1,2006-04-03T09:30:00Z,28.3507,-96.0058,2.0,296.4041656,9.534631613,-99999.0,'11133222,11111222,99999999' 
TABS,ioos:station:wmo:42049:1,2006-04-03T10:00:00Z,28.3507,-96.0058,2.0,332.4232348,9.11563492,-99999.0,'11133222,11111222,99999999' 
TABS,ioos:station:wmo:42049:1,2006-04-03T10:30:00Z,28.3507,-96.0058,2.0,347.5432461,5.192234586,-99999.0,'11133222,11111222,99999999' 
TABS,ioos:station:wmo:42049:1,2006-04-03T11:00:00Z,28.3507,-96.0058,2.0,356.4741272,5.690773234,-99999.0,'11133222,11111222,99999999' 
TABS,ioos:station:wmo:42049:1,2006-04-03T11:30:00Z,28.3507,-96.0058,2.0,351.1088496,3.299651497,-99999.0,'11133222,11111222,99999999' 
TABS,ioos:station:wmo:42049:1,2006-04-03T12:00:00Z,28.3507,-96.0058,2.0,8.237217036,5.30472431,-99999.0,'11133222,11111222,99999999' 
TABS,ioos:station:wmo:42049:1,2006-04-03T12:30:00Z,28.3507,-96.0058,2.0,35.66256411,4.270948372,-99999.0,'11133222,11111222,99999999' 
TABS,ioos:station:wmo:42049:1,2006-04-03T13:00:00Z,28.3507,-96.0058,2.0,92.64253911,1.301383879,-99999.0,'11133222,11111222,99999999' 
TABS,ioos:station:wmo:42049:1,2006-04-03T13:30:00Z,28.3507,-96.0058,2.0,119.0849317,1.830874108,-99999.0,'11133222,11111222,99999999' 
TABS,ioos:station:wmo:42049:1,2006-04-03T14:00:00Z,28.3507,-96.0058,2.0,79.28171508,26.40060037,-99999.0,'11111222,11111222,99999999' 
TABS,ioos:station:wmo:42049:1,2006-04-03T14:30:00Z,28.3507,-96.0058,2.0,98.48863164,28.9268906,-99999.0,'11111222,11111222,99999999' 
TABS,ioos:station:wmo:42049:1,2006-04-03T15:00:00Z,28.3507,-96.0058,2.0,101.5673098,31.86723239,-99999.0,'11111222,11111222,99999999' 
TABS,ioos:station:wmo:42049:1,2006-04-03T15:30:00Z,28.3507,-96.0058,2.0,110.6743764,30.58993952,-99999.0,'11111222,11111222,99999999' 
TABS,ioos:station:wmo:42049:1,2006-04-03T16:00:00Z,28.3507,-96.0058,2.0,128.2010527,30.04410924,-99999.0,'11111222,11111222,99999999' 
TABS,ioos:station:wmo:42049:1,2006-04-03T16:30:00Z,28.3507,-96.0058,2.0,132.1682244,36.21272843,-99999.0,'11111222,11111222,99999999' 
TABS,ioos:station:wmo:42049:1,2006-04-03T17:00:00Z,28.3507,-96.0058,2.0,136.8218476,38.69830487,-99999.0,'11111222,11111222,99999999' 
TABS,ioos:station:wmo:42049:1,2006-04-03T17:30:00Z,28.3507,-96.0058,2.0,150.5827377,38.37821517,-99999.0,'11111222,11111222,99999999' 
TABS,ioos:station:wmo:42049:1,2006-04-03T18:00:00Z,28.3507,-96.0058,2.0,157.8746464,35.81748875,-99999.0,'11111222,11111222,99999999' 
TABS,ioos:station:wmo:42049:1,2006-04-03T18:30:00Z,28.3507,-96.0058,2.0,163.419884,36.34096586,-99999.0,'11111222,11111222,99999999' 
TABS,ioos:station:wmo:42049:1,2006-04-03T19:00:00Z,28.3507,-96.0058,2.0,169.0893005,44.16838802,-99999.0,'11111222,11111222,99999999' 
TABS,ioos:station:wmo:42049:1,2006-04-03T19:30:00Z,28.3507,-96.0058,2.0,169.6086289,40.36196725,-99999.0,'11111222,11111222,99999999' 
TABS,ioos:station:wmo:42049:1,2006-04-03T20:00:00Z,28.3507,-96.0058,2.0,179.7490443,36.56035011,-99999.0,'11111222,11111222,99999999' 
TABS,ioos:station:wmo:42049:1,2006-04-03T20:30:00Z,28.3507,-96.0058,2.0,185.5409814,32.31098884,-99999.0,'11111222,11111222,99999999' 
TABS,ioos:station:wmo:42049:1,2006-04-03T21:00:00Z,28.3507,-96.0058,2.0,189.5040312,26.94993321,-99999.0,'11111222,11111222,99999999' 
TABS,ioos:station:wmo:42049:1,2006-04-03T21:30:00Z,28.3507,-96.0058,2.0,192.7441262,28.83026188,-99999.0,'11111222,11111222,99999999' 
TABS,ioos:station:wmo:42049:1,2006-04-03T22:00:00Z,28.3507,-96.0058,2.0,200.5491373,30.25513675,-99999.0,'11111222,11111222,99999999' 
TABS,ioos:station:wmo:42049:1,2006-04-03T22:30:00Z,28.3507,-96.0058,2.0,206.705086,25.56727792,-99999.0,'11111222,11111222,99999999' 
TABS,ioos:station:wmo:42049:1,2006-04-03T23:00:00Z,28.3507,-96.0058,2.0,208.5266494,22.9913114,-99999.0,'11111222,11111222,99999999' 
TABS,ioos:station:wmo:42049:1,2006-04-03T23:30:00Z,28.3507,-96.0058,2.0,220.2146434,20.42880564,-99999.0,'11111222,11111222,99999999' 
TABS,ioos:station:wmo:42049:1,2006-04-04T00:00:00Z,28.3507,-96.0058,2.0,224.2014994,18.27341238,-99999.0,'11111222,11111222,99999999' 
TABS,ioos:station:wmo:42049:1,2006-04-04T00:30:00Z,28.3507,-96.0058,2.0,242.2051399,18.55021833,-99999.0,'11111222,11111222,99999999' 
TABS,ioos:station:wmo:42049:1,2006-04-04T01:00:00Z,28.3507,-96.0058,2.0,259.0410032,15.9916103,-99999.0,'11111222,11111222,99999999' 
TABS,ioos:station:wmo:42049:1,2006-04-04T01:30:00Z,28.3507,-96.0058,2.0,266.8020288,17.9279112,-99999.0,'11111222,11111222,99999999' 
TABS,ioos:station:wmo:42049:1,2006-04-04T02:00:00Z,28.3507,-96.0058,2.0,273.3091935,17.49917141,-99999.0,'11111222,11111222,99999999' 
TABS,ioos:station:wmo:42049:1,2006-04-04T02:30:00Z,28.3507,-96.0058,2.0,275.8449731,15.31963446,-99999.0,'11111222,11111222,99999999' 
TABS,ioos:station:wmo:42049:1,2006-04-04T03:00:00Z,28.3507,-96.0058,2.0,274.4922062,15.57784645,-99999.0,'11111222,11111222,99999999' 
TABS,ioos:station:wmo:42049:1,2006-04-04T03:30:00Z,28.3507,-96.0058,2.0,272.8679315,16.79102439,-99999.0,'11111222,11111222,99999999' 
TABS,ioos:station:wmo:42049:1,2006-04-04T04:00:00Z,28.3507,-96.0058,2.0,283.3549836,16.10550527,-99999.0,'11111222,11111222,99999999' 
TABS,ioos:station:wmo:42049:1,2006-04-04T04:30:00Z,28.3507,-96.0058,2.0,294.1839766,14.20682934,-99999.0,'11111222,11111222,99999999' 
TABS,ioos:station:wmo:42049:1,2006-04-04T05:00:00Z,28.3507,-96.0058,2.0,307.88225,14.49426093,-99999.0,'11111222,11111222,99999999' 
TABS,ioos:station:wmo:42049:1,2006-04-04T05:30:00Z,28.3507,-96.0058,2.0,305.9452852,12.26559823,-99999.0,'11111222,11111222,99999999' 
TABS,ioos:station:wmo:42049:1,2006-04-04T06:00:00Z,28.3507,-96.0058,2.0,312.2940644,11.53163041,-99999.0,'11111222,11111222,99999999' 
TABS,ioos:station:wmo:42049:1,2006-04-04T06:30:00Z,28.3507,-96.0058,2.0,334.5553083,9.379861406,-99999.0,'11133222,11111222,99999999' 
TABS,ioos:station:wmo:42049:1,2006-04-04T07:00:00Z,28.3507,-96.0058,2.0,330.6902719,7.190500678,-99999.0,'11133222,11111222,99999999' 
TABS,ioos:station:wmo:42049:1,2006-04-04T07:30:00Z,28.3507,-96.0058,2.0,316.6731269,7.024564043,-99999.0,'11133222,11111222,99999999' 
TABS,ioos:station:wmo:42049:1,2006-04-04T08:00:00Z,28.3507,-96.0058,2.0,285.374709,7.166456586,-99999.0,'11133222,11111222,99999999' 
TABS,ioos:station:wmo:42049:1,2006-04-04T08:30:00Z,28.3507,-96.0058,2.0,357.8851394,3.52239975,-99999.0,'11133222,11111222,99999999' 
TABS,ioos:station:wmo:42049:1,2006-04-04T09:00:00Z,28.3507,-96.0058,2.0,286.9135991,3.33421655,-99999.0,'11133222,11111222,99999999' 
TABS,ioos:station:wmo:42049:1,2006-04-04T09:30:00Z,28.3507,-96.0058,2.0,279.907067,3.603734174,-99999.0,'11133222,11111222,99999999' 
TABS,ioos:station:wmo:42049:1,2006-04-04T10:00:00Z,28.3507,-96.0058,2.0,276.5238305,4.489064491,-99999.0,'11133222,11111222,99999999' 
TABS,ioos:station:wmo:42049:1,2006-04-04T10:30:00Z,28.3507,-96.0058,2.0,269.0010633,4.590697115,-99999.0,'11133222,11111222,99999999' 
TABS,ioos:station:wmo:42049:1,2006-04-04T11:00:00Z,28.3507,-96.0058,2.0,250.2143669,7.917379617,-99999.0,'11133222,11111222,99999999' 
TABS,ioos:station:wmo:42049:1,2006-04-04T11:30:00Z,28.3507,-96.0058,2.0,274.8229281,27.47727243,-99999.0,'11111222,11111222,99999999' 
TABS,ioos:station:wmo:42049:1,2006-04-04T12:00:00Z,28.3507,-96.0058,2.0,279.8611812,29.31304829,-99999.0,'11111222,11111222,99999999' 
TABS,ioos:station:wmo:42049:1,2006-04-04T12:30:00Z,28.3507,-96.0058,2.0,299.0792143,27.53012895,-99999.0,'11111222,11111222,99999999' 
TABS,ioos:station:wmo:42049:1,2006-04-04T13:00:00Z,28.3507,-96.0058,2.0,319.7574773,20.80403807,-99999.0,'11111222,11111222,99999999' 
TABS,ioos:station:wmo:42049:1,2006-04-04T13:30:00Z,28.3507,-96.0058,2.0,311.1547359,15.3930179,-99999.0,'11111222,11111222,99999999' 
TABS,ioos:station:wmo:42049:1,2006-04-04T14:00:00Z,28.3507,-96.0058,2.0,324.735521,13.42326711,-99999.0,'11111222,11111222,99999999' 
TABS,ioos:station:wmo:42049:1,2006-04-04T14:30:00Z,28.3507,-96.0058,2.0,309.4183274,10.03191906,-99999.0,'11111222,11111222,99999999' 
TABS,ioos:station:wmo:42049:1,2006-04-04T15:00:00Z,28.3507,-96.0058,2.0,292.8810046,8.281624237,-99999.0,'11133222,11111222,99999999' 
TABS,ioos:station:wmo:42049:1,2006-04-04T15:30:00Z,28.3507,-96.0058,2.0,302.6575183,6.615874848,-99999.0,'11133222,11111222,99999999' 
TABS,ioos:station:wmo:42049:1,2006-04-04T16:00:00Z,28.3507,-96.0058,2.0,311.5365188,8.309542707,-99999.0,'11133222,11111222,99999999' 